Location: Menlo Park
(37.4530°N, 122.1817°W)
Time: 17:58:16
(UTC-08:00)

ISS - Visible Passes

Search period start: 23 January 2018 00:00
Search period end: 02 February 2018 00:00
Orbit: 402 x 407 km, 51.6° (Epoch: 24 January)

Date Brightness Start Highest point End Pass type
(mag) Time Alt. Az. Time Alt. Az. Time Alt. Az.
23 Jan -2.4 18:33:42 10° S 18:36:16 22° SE 18:36:33 21° ESE visible
24 Jan -2.9 19:17:00 10° WSW 19:19:32 47° W 19:19:32 47° W visible
25 Jan -3.7 18:24:45 10° SW 18:27:57 59° SE 18:29:44 23° ENE visible
25 Jan -0.3 20:02:21 10° WNW 20:02:24 10° WNW 20:02:24 10° WNW visible
26 Jan -2.3 19:09:18 10° W 19:12:10 28° NNW 19:12:31 27° NNW visible
27 Jan -3.2 18:16:34 10° WSW 18:19:43 50° NW 18:22:32 13° NE visible
28 Jan -1.4 19:02:07 10° WNW 19:04:12 16° NNW 19:05:08 14° N visible
29 Jan -1.9 18:08:55 10° W 18:11:38 23° NNW 18:14:20 10° NNE visible
30 Jan -1.0 18:55:58 10° NNW 18:56:19 10° NNW 18:56:40 10° N visible
31 Jan -1.3 18:01:50 10° NW 18:03:37 14° NNW 18:05:24 10° N visible
